When you browse on this site, cookies collect data to enhance your experience and personalize the content and advertising you see.
Visit our Privacy Policy to learn more. By continuing to use the site, you agree to this use of cookies and data.
  • En España
  • Lista de países
  • Para 7 días
  • Temperatura del agua
  • Mapa Satelital
  • El tiempo en el mapa
  • Informadores
  • user-avatar
    Iniciar sesión

    Tiempo cada hora Maduraj

    Hoy, 20 Julio, Sábado

    Tiempo Temperatura Precipitaciones Viento Presión Humedad
    00:00 +28°C° 0 mm 2 mps 742 mmHg 73%
    01:00 +28°C° 0 mm 2 mps 741 mmHg 73%
    02:00 +28°C° 0 mm 2 mps 741 mmHg 73%
    03:00 +28°C° 0 mm 2 mps 740 mmHg 73%
    04:00 +28°C° 0 mm 2 mps 740 mmHg 73%
    05:00 +28°C° 0 mm 3 mps 741 mmHg 74%
    06:00 +29°C° 0 mm 3 mps 741 mmHg 71%
    07:00 +29°C° 0 mm 3 mps 741 mmHg 67%
    08:00 +30°C° 0 mm 3 mps 741 mmHg 64%
    09:00 +33°C° 0 mm 3 mps 741 mmHg 59%
    10:00 +34°C° 0 mm 4 mps 742 mmHg 54%
    11:00 +35°C° 0 mm 4 mps 742 mmHg 49%
    12:00 +35°C° 0 mm 4 mps 741 mmHg 49%
    13:00 +35°C° 0 mm 4 mps 740 mmHg 49%
    14:00 +35°C° 0 mm 4 mps 740 mmHg 49%
    15:00 +34°C° 0 mm 5 mps 740 mmHg 51%
    16:00 +34°C° 0 mm 5 mps 740 mmHg 53%
    17:00 +33°C° 0 mm 6 mps 739 mmHg 55%
    18:00 +33°C° 0 mm 5 mps 740 mmHg 57%
    19:00 +32°C° 0 mm 5 mps 741 mmHg 59%
    20:00 +32°C° 0 mm 5 mps 741 mmHg 61%
    21:00 +30°C° 0 mm 4 mps 741 mmHg 62%
    22:00 +30°C° 0 mm 4 mps 742 mmHg 63%
    23:00 +30°C° 0 mm 3 mps 742 mmHg 65%

    Mañana, 21 Julio, Domingo

    Tiempo Temperatura Precipitaciones Viento Presión Humedad
    00:00 +30°C° 0.1 mm 3 mps 741 mmHg 66%
    01:00 +29°C° 0.1 mm 2 mps 741 mmHg 67%
    02:00 +29°C° 0.1 mm 2 mps 741 mmHg 68%
    03:00 +29°C° 0 mm 2 mps 740 mmHg 69%
    04:00 +28°C° 0 mm 2 mps 740 mmHg 70%
    05:00 +28°C° 0 mm 2 mps 740 mmHg 72%
    06:00 +29°C° 0 mm 2 mps 741 mmHg 68%
    07:00 +30°C° 0 mm 3 mps 741 mmHg 64%
    08:00 +31°C° 0 mm 3 mps 742 mmHg 61%
    09:00 +33°C° 0 mm 4 mps 742 mmHg 55%
    10:00 +35°C° 0 mm 4 mps 742 mmHg 50%
    11:00 +36°C° 0 mm 4 mps 742 mmHg 45%
    12:00 +37°C° 0 mm 4 mps 741 mmHg 43%
    13:00 +37°C° 0 mm 4 mps 741 mmHg 42%
    14:00 +38°C° 0 mm 4 mps 740 mmHg 41%
    15:00 +37°C° 0.1 mm 5 mps 740 mmHg 44%
    16:00 +36°C° 0.1 mm 6 mps 739 mmHg 47%
    17:00 +35°C° 0.1 mm 7 mps 739 mmHg 50%
    18:00 +34°C° 0.4 mm 6 mps 740 mmHg 54%
    19:00 +33°C° 0.4 mm 5 mps 740 mmHg 58%
    20:00 +32°C° 0.4 mm 4 mps 741 mmHg 62%
    21:00 +32°C° 0.2 mm 4 mps 741 mmHg 63%
    22:00 +30°C° 0.2 mm 3 mps 741 mmHg 64%
    23:00 +30°C° 0.2 mm 3 mps 741 mmHg 66%

    Pasado mañana, 22 Julio, Lunes

    Tiempo Temperatura Precipitaciones Viento Presión Humedad
    00:00 +30°C° 0.1 mm 3 mps 741 mmHg 67%
    01:00 +30°C° 0.1 mm 3 mps 740 mmHg 68%
    02:00 +29°C° 0.1 mm 3 mps 740 mmHg 69%
    03:00 +29°C° 0.3 mm 2 mps 740 mmHg 72%
    04:00 +29°C° 0.3 mm 2 mps 740 mmHg 74%
    05:00 +28°C° 0.3 mm 2 mps 739 mmHg 76%
    06:00 +29°C° 0.3 mm 2 mps 740 mmHg 74%
    07:00 +29°C° 0.3 mm 2 mps 741 mmHg 72%
    08:00 +29°C° 0.3 mm 3 mps 741 mmHg 71%
    09:00 +29°C° 0.6 mm 2 mps 741 mmHg 73%
    10:00 +28°C° 0.6 mm 2 mps 741 mmHg 76%
    11:00 +28°C° 0.6 mm 2 mps 741 mmHg 79%
    12:00 +28°C° 0.2 mm 2 mps 741 mmHg 79%
    13:00 +28°C° 0.2 mm 2 mps 740 mmHg 79%
    14:00 +28°C° 0.2 mm 2 mps 740 mmHg 79%
    15:00 +28°C° 0.1 mm 2 mps 739 mmHg 78%
    16:00 +28°C° 0.1 mm 2 mps 739 mmHg 78%
    17:00 +28°C° 0.1 mm 2 mps 739 mmHg 77%
    18:00 +28°C° 0 mm 2 mps 740 mmHg 78%
    19:00 +28°C° 0 mm 2 mps 740 mmHg 79%
    20:00 +28°C° 0 mm 2 mps 741 mmHg 80%
    21:00 +28°C° 0 mm 1 mps 741 mmHg 80%
    22:00 +28°C° 0 mm 1 mps 741 mmHg 80%
    23:00 +28°C° 0 mm 1 mps 740 mmHg 80%

    23 Julio, Martes

    Tiempo Temperatura Precipitaciones Viento Presión Humedad
    00:00 +28°C° 0 mm 1 mps 740 mmHg 80%
    01:00 +26°C° 0 mm 0 mps 740 mmHg 79%
    02:00 +26°C° 0 mm 0 mps 739 mmHg 79%
    03:00 +28°C° 0 mm 1 mps 739 mmHg 79%
    04:00 +27°C° 0 mm 1 mps 739 mmHg 78%
    05:00 +27°C° 0 mm 1 mps 739 mmHg 78%
    06:00 +28°C° 0 mm 1 mps 739 mmHg 76%
    07:00 +28°C° 0 mm 1 mps 740 mmHg 74%
    08:00 +28°C° 0 mm 1 mps 741 mmHg 72%
    09:00 +29°C° 0 mm 1 mps 741 mmHg 69%
    10:00 +29°C° 0 mm 2 mps 741 mmHg 65%
    11:00 +30°C° 0 mm 2 mps 741 mmHg 62%
    12:00 +30°C° 0 mm 3 mps 740 mmHg 61%
    13:00 +30°C° 0 mm 3 mps 739 mmHg 60%
    14:00 +30°C° 0 mm 3 mps 739 mmHg 60%
    15:00 +31°C° 0 mm 3 mps 739 mmHg 59%
    16:00 +32°C° 0 mm 4 mps 739 mmHg 58%
    17:00 +32°C° 0 mm 4 mps 739 mmHg 57%
    18:00 +31°C° 0 mm 3 mps 739 mmHg 61%
    19:00 +30°C° 0 mm 3 mps 740 mmHg 64%
    20:00 +29°C° 0 mm 3 mps 740 mmHg 68%
    21:00 +29°C° 0 mm 3 mps 741 mmHg 69%
    22:00 +28°C° 0 mm 3 mps 741 mmHg 71%
    23:00 +28°C° 0 mm 3 mps 741 mmHg 72%

    24 Julio, Miércoles

    Tiempo Temperatura Precipitaciones Viento Presión Humedad
    00:00 +28°C° 0 mm 3 mps 740 mmHg 73%
    01:00 +28°C° 0 mm 3 mps 740 mmHg 73%
    02:00 +28°C° 0 mm 3 mps 739 mmHg 74%
    03:00 +28°C° 0 mm 2 mps 739 mmHg 75%
    04:00 +28°C° 0 mm 2 mps 739 mmHg 75%
    05:00 +27°C° 0 mm 2 mps 739 mmHg 76%
    06:00 +28°C° 0 mm 3 mps 740 mmHg 72%
    07:00 +29°C° 0 mm 3 mps 741 mmHg 68%
    08:00 +30°C° 0 mm 3 mps 741 mmHg 64%
    09:00 +32°C° 0 mm 4 mps 741 mmHg 59%
    10:00 +34°C° 0 mm 4 mps 741 mmHg 53%
    11:00 +35°C° 0 mm 5 mps 741 mmHg 48%
    12:00 +35°C° 0.1 mm 5 mps 741 mmHg 48%
    13:00 +36°C° 0.1 mm 6 mps 740 mmHg 48%
    14:00 +36°C° 0.1 mm 7 mps 740 mmHg 48%
    15:00 +35°C° 0.3 mm 6 mps 740 mmHg 50%
    16:00 +34°C° 0.3 mm 6 mps 740 mmHg 53%
    17:00 +33°C° 0.3 mm 6 mps 739 mmHg 55%
    18:00 +33°C° 0 mm 5 mps 740 mmHg 57%
    19:00 +32°C° 0 mm 5 mps 741 mmHg 60%
    20:00 +32°C° 0 mm 4 mps 742 mmHg 62%
    21:00 +30°C° 0 mm 4 mps 742 mmHg 64%
    22:00 +30°C° 0 mm 4 mps 742 mmHg 65%
    23:00 +30°C° 0 mm 3 mps 742 mmHg 66%

    25 Julio, Jueves

    Tiempo Temperatura Precipitaciones Viento Presión Humedad
    00:00 +30°C° 0 mm 3 mps 742 mmHg 67%
    01:00 +29°C° 0 mm 3 mps 741 mmHg 67%
    02:00 +29°C° 0 mm 3 mps 741 mmHg 68%
    03:00 +29°C° 0 mm 2 mps 741 mmHg 68%
    04:00 +29°C° 0 mm 2 mps 741 mmHg 69%
    05:00 +29°C° 0 mm 1 mps 741 mmHg 69%
    06:00 +29°C° 0 mm 2 mps 742 mmHg 67%
    07:00 +30°C° 0 mm 2 mps 742 mmHg 65%
    08:00 +30°C° 0 mm 2 mps 743 mmHg 63%
    09:00 +31°C° 0 mm 2 mps 743 mmHg 60%
    10:00 +32°C° 0 mm 2 mps 743 mmHg 57%
    11:00 +34°C° 0 mm 3 mps 742 mmHg 54%
    12:00 +35°C° 0 mm 3 mps 742 mmHg 50%
    13:00 +36°C° 0 mm 3 mps 741 mmHg 47%
    14:00 +37°C° 0 mm 4 mps 741 mmHg 43%
    15:00 +36°C° 0.1 mm 4 mps 741 mmHg 46%
    16:00 +35°C° 0.1 mm 5 mps 741 mmHg 48%
    17:00 +35°C° 0.1 mm 5 mps 740 mmHg 50%
    18:00 +34°C° 0.4 mm 5 mps 741 mmHg 54%
    19:00 +33°C° 0.4 mm 4 mps 742 mmHg 58%
    20:00 +32°C° 0.4 mm 4 mps 742 mmHg 61%
    21:00 +31°C° 0.8 mm 3 mps 742 mmHg 64%
    22:00 +30°C° 0.8 mm 2 mps 742 mmHg 67%
    23:00 +29°C° 0.8 mm 2 mps 743 mmHg 70%
    Mostrar más